Simultaneous Nadir Overpasses (SNOs) Predictions

Prediction of SNOs between AQUA and METOP-A Satellite Orbit:

Table of predicted SNOs for the next 14.0 days since TLE Epoch: 4/24/2020
Index Date (AQUA) Time (AQUA) Lat,Lon (AQUA) SZA (AQUA ) Date (METOP-A) Time (METOP-A) Lat,Lon (METOP-A) SZA (METOP-A ) Distance(km) Time Diff (sec)
1 04/26/2020 11:06:05 -76.12,-178.08 117.43 04/26/2020 11:05:41 -76.13,-178.14 117.41 1.87 24
2 04/26/2020 11:55:34 76.18, -10.64 62.64 04/26/2020 11:56:20 76.17, -10.69 62.62 2.01 46
3 04/29/2020 06:40:20 -76.16,-111.75 118.28 04/29/2020 06:40:03 -76.16,-111.72 118.27 0.84 17
4 04/29/2020 07:29:48 76.17, 55.84 61.74 04/29/2020 07:30:42 76.19, 55.73 61.75 3.28 54
5 05/02/2020 01:25:01 75.78, 148.21 60.46 05/02/2020 01:23:53 75.71, 145.87 60.53 64.49 68
6 05/02/2020 02:14:34 -76.15, -45.28 119.14 05/02/2020 02:14:25 -76.18, -45.30 119.11 3.10 9
7 05/02/2020 03:04:03 76.22, 122.13 60.93 05/02/2020 03:05:04 76.20, 122.14 60.91 1.57 61
8 05/04/2020 20:59:20 76.08,-146.26 59.97 05/04/2020 20:58:08 76.01,-146.83 59.95 17.32 72
9 05/04/2020 21:48:48 -76.19, 21.02 119.91 05/04/2020 21:48:46 -76.19, 21.12 119.91 2.47 2
10 05/04/2020 22:38:16 76.22,-171.43 60.12 05/04/2020 22:39:25 76.22,-171.46 60.10 0.76 69
11 05/07/2020 16:33:35 76.13, -79.99 59.25 05/07/2020 16:32:27 76.16, -79.97 59.29 2.76 68
12 05/07/2020 17:23:02 -76.19, 87.46 120.69 05/07/2020 17:23:08 -76.21, 87.52 120.68 2.35 6




NCC Satellite Simultaneous Nadir Overpasses (SNOs) Prediction Service
